Location: Melizzano
(41.1500°N, 14.5000°E)
Time: 05:27:03
(UTC+00:00)

Cosmos 1709 Rocket - Pass Details

Date: 26 September 2021
Orbit: 947 x 1002 km, 82.9° (Epoch: 16 October)

Event Time Altitude Azimuth Distance (km) Brightness Sun altitude
Rises 17:03:16 0° 197° (SSW) 3,662 7.2 -2.9°
Reaches altitude 10° 17:05:49 10° 201° (SSW) 2,710 6.6 -3.4°
Maximum altitude 17:11:56 60° 280° (W) 1,100 4.8 -4.5°
Drops below altitude 10° 17:18:00 10° 0° (N) 2,693 6.4 -5.7°
Sets 17:20:33 0° 4° (N) 3,637 7.0 -6.2°
